Year,Month,Day,Hour,Minute,Value (Times are PST for windspeed in km/hr)
2009,11,17,00,00,6.40
2009,11,17,00,01,3.20
2009,11,17,00,02,1.60
2009,11,17,00,03,0.00
2009,11,17,00,04,1.60
2009,11,17,00,05,6.40
2009,11,17,00,06,0.00
2009,11,17,00,07,0.00
2009,11,17,00,08,6.40
2009,11,17,00,09,1.60
2009,11,17,00,10,16.10
2009,11,17,00,11,17.70
2009,11,17,00,12,9.70
2009,11,17,00,13,3.20
2009,11,17,00,14,6.40
2009,11,17,00,15,1.60
2009,11,17,00,16,1.60
2009,11,17,00,17,1.60
2009,11,17,00,18,0.00
2009,11,17,00,19,9.70
2009,11,17,00,20,0.00
2009,11,17,00,21,14.50
2009,11,17,00,22,11.30
2009,11,17,00,23,12.90
2009,11,17,00,24,12.90
2009,11,17,00,25,9.70
2009,11,17,00,26,8.00
2009,11,17,00,27,8.00
2009,11,17,00,28,4.80
2009,11,17,00,29,9.70
2009,11,17,00,30,14.50
2009,11,17,00,31,11.30
2009,11,17,00,32,3.20
2009,11,17,00,33,3.20
2009,11,17,00,34,3.20
2009,11,17,00,35,0.00
2009,11,17,00,36,6.40
2009,11,17,00,37,9.70
2009,11,17,00,38,8.00
2009,11,17,00,39,8.00
2009,11,17,00,40,11.30
2009,11,17,00,41,1.60
2009,11,17,00,42,8.00
2009,11,17,00,43,1.60
2009,11,17,00,44,9.70
2009,11,17,00,45,4.80
2009,11,17,00,46,3.20
2009,11,17,00,47,1.60
2009,11,17,00,48,3.20
2009,11,17,00,49,9.70
2009,11,17,00,50,17.70
2009,11,17,00,51,6.40
2009,11,17,00,52,3.20
2009,11,17,00,53,4.80
2009,11,17,00,54,3.20
2009,11,17,00,55,6.40
2009,11,17,00,56,8.00
2009,11,17,00,57,6.40
2009,11,17,00,58,3.20
2009,11,17,00,59,3.20
2009,11,17,01,00,12.90
2009,11,17,01,01,3.20
2009,11,17,01,02,19.30
2009,11,17,01,03,12.90
2009,11,17,01,04,19.30
2009,11,17,01,05,16.10
2009,11,17,01,06,20.90
2009,11,17,01,07,37.00
2009,11,17,01,08,33.80
2009,11,17,01,09,37.00
2009,11,17,01,10,49.90
2009,11,17,01,11,32.20
2009,11,17,01,12,33.80
2009,11,17,01,13,32.20
2009,11,17,01,14,20.90
2009,11,17,01,15,35.40
2009,11,17,01,16,37.00
2009,11,17,01,17,32.20
2009,11,17,01,18,17.70
2009,11,17,01,19,32.20
2009,11,17,01,20,11.30
2009,11,17,01,21,25.70
2009,11,17,01,22,33.80
2009,11,17,01,23,19.30
2009,11,17,01,24,25.70
2009,11,17,01,25,17.70
2009,11,17,01,26,22.50
2009,11,17,01,27,38.60
2009,11,17,01,28,37.00
2009,11,17,01,29,35.40
2009,11,17,01,30,30.60
2009,11,17,01,31,56.30
2009,11,17,01,32,30.60
2009,11,17,01,33,29.00
2009,11,17,01,34,24.10
2009,11,17,01,35,33.80
2009,11,17,01,36,16.10
2009,11,17,01,37,33.80
2009,11,17,01,38,14.50
2009,11,17,01,39,8.00
2009,11,17,01,40,17.70
2009,11,17,01,41,25.70
2009,11,17,01,42,20.90
2009,11,17,01,43,11.30
2009,11,17,01,44,20.90
2009,11,17,01,45,24.10
2009,11,17,01,46,12.90
2009,11,17,01,47,48.30
2009,11,17,01,48,29.00
2009,11,17,01,49,35.40
2009,11,17,01,50,32.20
2009,11,17,01,51,37.00
2009,11,17,01,52,32.20
2009,11,17,01,53,22.50
2009,11,17,01,54,29.00
2009,11,17,01,55,19.30
2009,11,17,01,56,25.70
2009,11,17,01,57,38.60
2009,11,17,01,58,19.30
2009,11,17,01,59,37.00
2009,11,17,02,00,41.80
2009,11,17,02,01,25.70
2009,11,17,02,02,45.10
2009,11,17,02,03,43.50
2009,11,17,02,04,20.90
2009,11,17,02,05,29.00
2009,11,17,02,06,45.10
2009,11,17,02,07,51.50
2009,11,17,02,08,56.30
2009,11,17,02,09,49.90
2009,11,17,02,10,56.30
2009,11,17,02,11,49.90
2009,11,17,02,12,37.00
2009,11,17,02,13,30.60
2009,11,17,02,14,24.10
2009,11,17,02,15,19.30
2009,11,17,02,16,16.10
2009,11,17,02,17,22.50
2009,11,17,02,18,20.90
2009,11,17,02,19,32.20
2009,11,17,02,20,53.10
2009,11,17,02,21,43.50
2009,11,17,02,22,19.30
2009,11,17,02,23,33.80
2009,11,17,02,24,19.30
2009,11,17,02,25,17.70
2009,11,17,02,26,37.00
2009,11,17,02,27,29.00
2009,11,17,02,28,25.70
2009,11,17,02,29,20.90
2009,11,17,02,30,49.90
2009,11,17,02,31,30.60
2009,11,17,02,32,41.80
2009,11,17,02,33,33.80
2009,11,17,02,34,25.70
2009,11,17,02,35,30.60
2009,11,17,02,36,22.50
2009,11,17,02,37,24.10
2009,11,17,02,38,32.20
2009,11,17,02,39,25.70
2009,11,17,02,40,12.90
2009,11,17,02,41,24.10
2009,11,17,02,42,11.30
2009,11,17,02,43,22.50
2009,11,17,02,44,20.90
2009,11,17,02,45,29.00
2009,11,17,02,46,16.10
2009,11,17,02,47,35.40
2009,11,17,02,48,35.40
2009,11,17,02,49,41.80
2009,11,17,02,50,54.70
2009,11,17,02,51,43.50
2009,11,17,02,52,32.20
2009,11,17,02,53,24.10
2009,11,17,02,54,35.40
2009,11,17,02,55,37.00
2009,11,17,02,56,41.80
2009,11,17,02,57,35.40
2009,11,17,02,58,45.10
2009,11,17,02,59,41.80
2009,11,17,03,00,38.60
2009,11,17,03,01,35.40
2009,11,17,03,02,22.50
2009,11,17,03,03,54.70
2009,11,17,03,04,24.10
2009,11,17,03,05,46.70
2009,11,17,03,06,24.10
2009,11,17,03,07,30.60
2009,11,17,03,08,20.90
2009,11,17,03,09,17.70
2009,11,17,03,10,25.70
2009,11,17,03,11,30.60
2009,11,17,03,12,30.60
2009,11,17,03,13,54.70
2009,11,17,03,14,37.00
2009,11,17,03,15,38.60
2009,11,17,03,16,38.60
2009,11,17,03,17,43.50
2009,11,17,03,18,69.20
2009,11,17,03,19,51.50
2009,11,17,03,20,25.70
2009,11,17,03,21,54.70
2009,11,17,03,22,33.80
2009,11,17,03,23,48.30
2009,11,17,03,24,30.60
2009,11,17,03,25,45.10
2009,11,17,03,26,32.20
2009,11,17,03,27,43.50
2009,11,17,03,28,41.80
2009,11,17,03,29,56.30
2009,11,17,03,30,53.10
2009,11,17,03,31,38.60
2009,11,17,03,32,48.30
2009,11,17,03,33,54.70
2009,11,17,03,34,41.80
2009,11,17,03,35,46.70
2009,11,17,03,36,33.80
2009,11,17,03,37,33.80
2009,11,17,03,38,43.50
2009,11,17,03,39,29.00
2009,11,17,03,40,38.60
2009,11,17,03,41,37.00
2009,11,17,03,42,48.30
2009,11,17,03,43,35.40
2009,11,17,03,44,43.50
2009,11,17,03,45,29.00
2009,11,17,03,46,30.60
2009,11,17,03,47,32.20
2009,11,17,03,48,29.00
2009,11,17,03,49,32.20
2009,11,17,03,50,22.50
2009,11,17,03,51,45.10
2009,11,17,03,52,25.70
2009,11,17,03,55,45.10
2009,11,17,03,59,57.90
2009,11,17,04,00,35.40
2009,11,17,04,01,35.40
2009,11,17,04,02,40.20
2009,11,17,04,03,33.80
2009,11,17,04,04,20.90
2009,11,17,04,05,24.10
2009,11,17,04,06,29.00
2009,11,17,04,07,22.50
2009,11,17,04,08,22.50
2009,11,17,04,09,20.90
2009,11,17,04,10,33.80
2009,11,17,04,11,62.80
2009,11,17,04,12,48.30
2009,11,17,04,13,25.70
2009,11,17,04,14,30.60
2009,11,17,04,15,14.50
2009,11,17,04,16,45.10
2009,11,17,04,17,33.80
2009,11,17,04,18,38.60
2009,11,17,04,19,33.80
2009,11,17,04,20,24.10
2009,11,17,04,21,22.50
2009,11,17,04,22,35.40
2009,11,17,04,23,35.40
2009,11,17,04,24,37.00
2009,11,17,04,25,25.70
2009,11,17,04,26,35.40
2009,11,17,04,27,30.60
2009,11,17,04,28,17.70
2009,11,17,04,29,25.70
2009,11,17,04,30,38.60
2009,11,17,04,31,22.50
2009,11,17,04,32,22.50
2009,11,17,04,33,17.70
2009,11,17,04,34,16.10
2009,11,17,04,35,19.30
2009,11,17,04,36,24.10
2009,11,17,04,37,30.60
2009,11,17,04,38,17.70
2009,11,17,04,39,24.10
2009,11,17,04,40,37.00
2009,11,17,04,41,22.50
2009,11,17,04,42,19.30
2009,11,17,04,43,30.60
2009,11,17,04,44,33.80
2009,11,17,04,45,32.20
2009,11,17,04,46,30.60
2009,11,17,04,47,40.20
2009,11,17,04,48,33.80
2009,11,17,04,49,30.60
2009,11,17,04,50,51.50
2009,11,17,04,51,16.10
2009,11,17,04,52,29.00
2009,11,17,04,53,32.20
2009,11,17,04,54,67.60
2009,11,17,04,55,35.40
2009,11,17,04,56,19.30
2009,11,17,04,57,32.20
2009,11,17,04,58,33.80
2009,11,17,04,59,30.60
2009,11,17,05,00,16.10
2009,11,17,05,01,35.40
2009,11,17,05,02,30.60
2009,11,17,05,03,30.60
2009,11,17,05,04,54.70
2009,11,17,05,05,37.00
2009,11,17,05,06,32.20
2009,11,17,05,07,37.00
2009,11,17,05,08,43.50
2009,11,17,05,09,40.20
2009,11,17,05,10,41.80
2009,11,17,05,11,22.50
2009,11,17,05,12,33.80
2009,11,17,05,13,32.20
2009,11,17,05,14,41.80
2009,11,17,05,15,25.70
2009,11,17,05,16,14.50
2009,11,17,05,17,33.80
2009,11,17,05,18,29.00
2009,11,17,05,19,25.70
2009,11,17,05,20,24.10
2009,11,17,05,21,32.20
2009,11,17,05,22,24.10
2009,11,17,05,23,22.50
2009,11,17,05,24,37.00
2009,11,17,05,25,20.90
2009,11,17,05,26,20.90
2009,11,17,05,27,32.20
2009,11,17,05,28,24.10
2009,11,17,05,29,14.50
2009,11,17,05,30,37.00
2009,11,17,05,31,37.00
2009,11,17,05,32,38.60
2009,11,17,05,33,37.00
2009,11,17,05,34,43.50
2009,11,17,05,35,20.90
2009,11,17,05,36,17.70
2009,11,17,05,37,19.30
2009,11,17,05,38,32.20
2009,11,17,05,39,22.50
2009,11,17,05,40,35.40
2009,11,17,05,41,37.00
2009,11,17,05,42,22.50
2009,11,17,05,43,24.10
2009,11,17,05,44,19.30
2009,11,17,05,45,29.00
2009,11,17,05,46,29.00
2009,11,17,05,47,19.30
2009,11,17,05,48,22.50
2009,11,17,05,49,35.40
2009,11,17,05,50,14.50
2009,11,17,05,51,14.50
2009,11,17,05,52,25.70
2009,11,17,05,53,19.30
2009,11,17,05,55,29.00
2009,11,17,05,56,29.00
2009,11,17,05,57,29.00
2009,11,17,05,58,29.00
2009,11,17,05,59,29.00
2009,11,17,06,00,29.00
2009,11,17,06,01,29.00
2009,11,17,06,02,29.00
2009,11,17,06,03,29.00
2009,11,17,06,04,29.00
2009,11,17,06,05,29.00
2009,11,17,06,06,29.00
2009,11,17,06,07,29.00
2009,11,17,06,08,29.00
2009,11,17,06,09,29.00
2009,11,17,06,10,29.00
2009,11,17,06,11,29.00
2009,11,17,06,12,29.00
2009,11,17,06,13,29.00
2009,11,17,06,14,29.00
2009,11,17,06,15,29.00
2009,11,17,06,16,29.00
2009,11,17,06,17,29.00
2009,11,17,06,18,29.00
2009,11,17,06,19,29.00
2009,11,17,06,20,29.00
2009,11,17,06,21,29.00
2009,11,17,06,22,29.00
2009,11,17,06,23,29.00
2009,11,17,06,24,29.00
2009,11,17,06,25,29.00
2009,11,17,06,26,29.00
2009,11,17,06,27,29.00
2009,11,17,06,28,29.00
2009,11,17,06,29,29.00
2009,11,17,06,30,29.00
2009,11,17,06,31,29.00
2009,11,17,06,32,29.00
2009,11,17,06,33,29.00
2009,11,17,06,34,29.00
2009,11,17,06,35,29.00
2009,11,17,06,36,29.00
2009,11,17,06,37,29.00
2009,11,17,06,38,29.00
2009,11,17,06,39,29.00
2009,11,17,06,40,29.00
2009,11,17,06,41,29.00
2009,11,17,06,42,29.00
2009,11,17,06,43,29.00
2009,11,17,06,44,29.00
2009,11,17,06,45,29.00
2009,11,17,06,46,29.00
2009,11,17,06,47,29.00
2009,11,17,06,48,29.00
2009,11,17,06,49,29.00
2009,11,17,06,50,29.00
2009,11,17,06,51,29.00
2009,11,17,06,52,29.00
2009,11,17,06,53,29.00
2009,11,17,06,54,29.00
2009,11,17,06,55,29.00
2009,11,17,06,56,29.00
2009,11,17,06,57,29.00
2009,11,17,06,58,29.00
2009,11,17,06,59,29.00
2009,11,17,07,00,29.00
2009,11,17,07,01,29.00
2009,11,17,07,02,29.00
2009,11,17,07,03,29.00
2009,11,17,07,04,29.00
2009,11,17,07,05,29.00
2009,11,17,07,06,29.00
2009,11,17,07,07,29.00
2009,11,17,07,08,29.00
2009,11,17,07,09,29.00
2009,11,17,07,10,29.00
2009,11,17,07,11,29.00
2009,11,17,07,12,29.00
2009,11,17,07,13,29.00
2009,11,17,07,14,29.00
2009,11,17,07,15,29.00
2009,11,17,07,16,29.00
2009,11,17,07,17,29.00
2009,11,17,07,18,29.00
2009,11,17,07,19,29.00
2009,11,17,07,20,29.00
2009,11,17,07,21,29.00
2009,11,17,07,22,29.00
2009,11,17,07,23,29.00
2009,11,17,07,24,29.00
2009,11,17,07,25,29.00
2009,11,17,07,26,29.00
2009,11,17,07,27,29.00
2009,11,17,07,28,29.00
2009,11,17,07,29,29.00
2009,11,17,07,30,29.00
2009,11,17,07,31,29.00
2009,11,17,07,32,29.00
2009,11,17,07,33,29.00
2009,11,17,07,34,29.00
2009,11,17,07,35,29.00
2009,11,17,07,36,29.00
2009,11,17,07,37,29.00
2009,11,17,07,38,29.00
2009,11,17,07,39,29.00
2009,11,17,07,40,29.00
2009,11,17,07,41,29.00
2009,11,17,07,42,29.00
2009,11,17,07,43,29.00
2009,11,17,07,44,29.00
2009,11,17,07,45,29.00
2009,11,17,07,46,29.00
2009,11,17,07,47,29.00
2009,11,17,07,48,29.00
2009,11,17,07,49,29.00
2009,11,17,07,50,29.00
2009,11,17,07,51,29.00
2009,11,17,07,52,29.00
2009,11,17,07,53,29.00
2009,11,17,07,54,29.00
2009,11,17,07,55,29.00
2009,11,17,07,56,29.00
2009,11,17,07,57,29.00
2009,11,17,07,58,29.00
2009,11,17,07,59,29.00
2009,11,17,08,00,29.00
2009,11,17,08,01,29.00
2009,11,17,08,02,29.00
2009,11,17,08,03,29.00
2009,11,17,08,04,29.00
2009,11,17,08,05,29.00
2009,11,17,08,06,29.00
2009,11,17,08,07,29.00
2009,11,17,08,08,29.00
2009,11,17,08,09,29.00
2009,11,17,08,10,29.00
2009,11,17,08,11,29.00
2009,11,17,08,12,29.00
2009,11,17,08,13,29.00
2009,11,17,08,14,29.00
2009,11,17,08,15,29.00
2009,11,17,08,16,29.00
2009,11,17,08,17,29.00
2009,11,17,08,18,29.00
2009,11,17,08,19,29.00
2009,11,17,08,20,29.00
2009,11,17,08,21,29.00
2009,11,17,08,22,29.00
2009,11,17,08,23,29.00
2009,11,17,08,24,29.00
2009,11,17,08,25,29.00
2009,11,17,08,26,29.00
2009,11,17,08,27,29.00
2009,11,17,08,28,29.00
2009,11,17,08,29,29.00
2009,11,17,08,30,29.00
2009,11,17,08,31,29.00
2009,11,17,08,32,29.00
2009,11,17,08,33,29.00
2009,11,17,08,34,29.00
2009,11,17,08,35,29.00
2009,11,17,08,36,29.00
2009,11,17,08,37,29.00
2009,11,17,08,38,29.00
2009,11,17,08,39,29.00
2009,11,17,08,40,29.00
2009,11,17,08,41,29.00
2009,11,17,08,42,29.00
2009,11,17,08,43,29.00
2009,11,17,08,44,29.00
2009,11,17,08,45,29.00
2009,11,17,08,46,29.00
2009,11,17,08,47,29.00
2009,11,17,08,48,29.00
2009,11,17,08,49,29.00
2009,11,17,08,50,29.00
2009,11,17,08,51,29.00
2009,11,17,08,52,29.00
2009,11,17,08,53,29.00
2009,11,17,08,54,29.00
2009,11,17,08,55,29.00
2009,11,17,08,56,29.00
2009,11,17,08,57,29.00
2009,11,17,08,58,29.00
2009,11,17,08,59,29.00
2009,11,17,09,00,29.00
2009,11,17,09,01,29.00
2009,11,17,09,02,29.00
2009,11,17,09,03,29.00
2009,11,17,09,04,29.00
2009,11,17,09,05,29.00
2009,11,17,09,06,29.00
2009,11,17,09,07,29.00
2009,11,17,09,08,29.00
2009,11,17,09,09,29.00
2009,11,17,09,10,29.00
2009,11,17,09,11,29.00
2009,11,17,09,12,29.00
2009,11,17,09,13,29.00
2009,11,17,09,14,29.00
2009,11,17,09,15,29.00
2009,11,17,09,16,29.00
2009,11,17,09,17,29.00
2009,11,17,09,18,29.00
2009,11,17,09,19,29.00
2009,11,17,09,20,29.00
2009,11,17,09,21,29.00
2009,11,17,09,22,29.00
2009,11,17,09,23,29.00
2009,11,17,09,24,29.00
2009,11,17,09,25,29.00
2009,11,17,09,26,29.00
2009,11,17,09,27,29.00
2009,11,17,09,28,29.00
2009,11,17,09,29,29.00
2009,11,17,09,30,29.00
2009,11,17,09,31,29.00
2009,11,17,09,32,29.00
2009,11,17,09,33,29.00
2009,11,17,09,34,29.00
2009,11,17,09,35,29.00
2009,11,17,09,36,29.00
2009,11,17,09,37,29.00
2009,11,17,09,38,29.00
2009,11,17,09,39,29.00
2009,11,17,09,40,29.00
2009,11,17,09,41,29.00
2009,11,17,09,42,29.00
2009,11,17,09,43,29.00
2009,11,17,09,44,29.00
2009,11,17,09,45,29.00
2009,11,17,09,46,29.00
2009,11,17,09,47,29.00
2009,11,17,09,48,29.00
2009,11,17,09,49,29.00
2009,11,17,09,50,29.00
2009,11,17,09,51,29.00
2009,11,17,09,52,29.00
2009,11,17,09,53,29.00
2009,11,17,09,54,29.00
2009,11,17,09,55,29.00
2009,11,17,09,56,29.00
2009,11,17,09,57,29.00
2009,11,17,09,58,29.00
2009,11,17,09,59,29.00
2009,11,17,10,00,29.00
2009,11,17,10,01,29.00
2009,11,17,10,02,29.00
2009,11,17,10,03,29.00
2009,11,17,10,04,29.00
2009,11,17,10,05,29.00
2009,11,17,10,06,29.00
2009,11,17,10,07,29.00
2009,11,17,10,08,29.00
2009,11,17,10,09,29.00
2009,11,17,10,10,29.00
2009,11,17,10,11,29.00
2009,11,17,10,12,29.00
2009,11,17,10,13,29.00
2009,11,17,10,14,29.00
2009,11,17,10,15,29.00
2009,11,17,10,16,29.00
2009,11,17,10,17,29.00
2009,11,17,10,18,29.00
2009,11,17,10,19,29.00
2009,11,17,10,20,29.00
2009,11,17,10,21,29.00
2009,11,17,10,22,29.00
2009,11,17,10,23,29.00
2009,11,17,10,24,29.00
2009,11,17,10,25,29.00
2009,11,17,10,26,29.00
2009,11,17,10,27,29.00
2009,11,17,10,28,29.00
2009,11,17,10,29,29.00
2009,11,17,10,30,29.00
2009,11,17,10,31,29.00
2009,11,17,10,32,29.00
2009,11,17,10,33,29.00
2009,11,17,10,34,29.00
2009,11,17,10,35,29.00
2009,11,17,10,36,29.00
2009,11,17,10,37,29.00
2009,11,17,10,38,29.00
2009,11,17,10,39,29.00
2009,11,17,10,40,29.00
2009,11,17,10,41,29.00
2009,11,17,10,42,29.00
2009,11,17,10,43,29.00
2009,11,17,10,44,29.00
2009,11,17,10,45,29.00
2009,11,17,10,46,29.00
2009,11,17,10,47,29.00
2009,11,17,10,48,29.00
2009,11,17,10,51,29.00
2009,11,17,10,52,29.00
2009,11,17,10,53,29.00
2009,11,17,10,54,29.00
2009,11,17,10,55,29.00
2009,11,17,10,56,29.00
2009,11,17,10,57,29.00
2009,11,17,10,58,29.00
2009,11,17,10,59,29.00
2009,11,17,11,00,29.00
2009,11,17,11,01,29.00
2009,11,17,11,02,29.00
2009,11,17,11,03,29.00
2009,11,17,11,04,29.00
2009,11,17,11,05,29.00
2009,11,17,11,06,29.00
2009,11,17,11,07,29.00
2009,11,17,11,08,29.00
2009,11,17,11,09,29.00
2009,11,17,11,10,29.00
2009,11,17,11,11,29.00
2009,11,17,11,12,29.00
2009,11,17,11,13,29.00
2009,11,17,11,14,29.00
2009,11,17,11,15,29.00
2009,11,17,11,16,29.00
2009,11,17,11,17,29.00
2009,11,17,11,18,29.00
2009,11,17,11,19,29.00
2009,11,17,11,20,29.00
2009,11,17,11,21,29.00
2009,11,17,11,22,29.00
2009,11,17,11,23,29.00
2009,11,17,11,24,29.00
2009,11,17,11,25,29.00
2009,11,17,11,26,29.00
2009,11,17,11,27,29.00
2009,11,17,11,28,29.00
2009,11,17,11,29,29.00
2009,11,17,11,30,29.00
2009,11,17,11,31,29.00
2009,11,17,11,32,29.00
2009,11,17,11,33,29.00
2009,11,17,11,34,29.00
2009,11,17,11,35,29.00
2009,11,17,11,36,29.00
2009,11,17,11,37,29.00
2009,11,17,11,38,29.00
2009,11,17,11,39,29.00
2009,11,17,11,40,29.00
2009,11,17,11,41,29.00
2009,11,17,11,42,29.00
2009,11,17,11,43,29.00
2009,11,17,11,44,29.00
2009,11,17,11,45,29.00
2009,11,17,11,46,29.00
2009,11,17,11,47,29.00
2009,11,17,11,48,29.00
2009,11,17,11,49,29.00
2009,11,17,11,50,29.00
2009,11,17,11,51,29.00
2009,11,17,11,52,29.00
2009,11,17,11,53,29.00
2009,11,17,11,54,29.00
2009,11,17,11,55,29.00
2009,11,17,11,56,29.00
2009,11,17,11,57,29.00
2009,11,17,11,58,29.00
2009,11,17,11,59,29.00
2009,11,17,12,00,29.00
2009,11,17,12,01,29.00
2009,11,17,12,02,29.00
2009,11,17,12,03,29.00
2009,11,17,12,04,29.00
2009,11,17,12,05,29.00
2009,11,17,12,06,29.00
2009,11,17,12,07,29.00
2009,11,17,12,08,29.00
2009,11,17,12,09,29.00
2009,11,17,12,10,29.00
2009,11,17,12,11,29.00
2009,11,17,12,12,29.00
2009,11,17,12,13,29.00
2009,11,17,12,14,29.00
2009,11,17,12,15,29.00
2009,11,17,12,16,29.00
2009,11,17,12,17,29.00
2009,11,17,12,18,29.00
2009,11,17,12,19,29.00
2009,11,17,12,20,29.00
2009,11,17,12,21,29.00
2009,11,17,12,22,29.00
2009,11,17,12,23,29.00
2009,11,17,12,24,29.00
2009,11,17,12,25,29.00
2009,11,17,12,26,29.00
2009,11,17,12,27,29.00
2009,11,17,12,28,29.00
2009,11,17,12,29,29.00
2009,11,17,12,30,29.00
2009,11,17,12,31,29.00
2009,11,17,12,32,29.00
2009,11,17,12,33,29.00
2009,11,17,12,34,29.00
2009,11,17,12,35,29.00
2009,11,17,12,36,29.00
2009,11,17,12,37,29.00
2009,11,17,12,38,29.00
2009,11,17,12,39,29.00
2009,11,17,12,40,29.00
2009,11,17,12,41,29.00
2009,11,17,12,42,29.00
2009,11,17,12,43,29.00
2009,11,17,12,44,29.00
2009,11,17,12,45,29.00
2009,11,17,12,46,29.00
2009,11,17,12,47,29.00
2009,11,17,12,48,29.00
2009,11,17,12,49,29.00
2009,11,17,12,50,29.00
2009,11,17,12,51,29.00
2009,11,17,12,52,29.00
2009,11,17,12,53,29.00
2009,11,17,12,54,29.00
2009,11,17,12,55,29.00
2009,11,17,12,56,29.00
2009,11,17,12,57,29.00
2009,11,17,12,58,29.00
2009,11,17,12,59,29.00
2009,11,17,13,00,29.00
2009,11,17,13,01,29.00
2009,11,17,13,02,29.00
2009,11,17,13,03,29.00
2009,11,17,13,04,29.00
2009,11,17,13,05,29.00
2009,11,17,13,06,29.00
2009,11,17,13,07,29.00
2009,11,17,13,08,29.00
2009,11,17,13,09,29.00
2009,11,17,13,10,29.00
2009,11,17,13,11,29.00
2009,11,17,13,12,29.00
2009,11,17,13,13,29.00
2009,11,17,13,14,29.00
2009,11,17,13,15,29.00
2009,11,17,13,16,29.00
2009,11,17,13,17,29.00
2009,11,17,13,18,29.00
2009,11,17,13,19,29.00
2009,11,17,13,20,29.00
2009,11,17,13,21,29.00
2009,11,17,13,22,29.00
2009,11,17,13,23,29.00
2009,11,17,13,24,29.00
2009,11,17,13,25,29.00
2009,11,17,13,26,29.00
2009,11,17,13,27,29.00
2009,11,17,13,28,29.00
2009,11,17,13,29,29.00
2009,11,17,13,30,29.00
2009,11,17,13,31,29.00
2009,11,17,13,32,29.00
2009,11,17,13,33,29.00
2009,11,17,13,34,29.00
2009,11,17,13,35,29.00
2009,11,17,13,36,29.00
2009,11,17,13,37,29.00
2009,11,17,13,38,29.00
2009,11,17,13,39,29.00
2009,11,17,13,40,29.00
2009,11,17,13,41,29.00
2009,11,17,13,42,29.00
2009,11,17,13,43,29.00
2009,11,17,13,44,29.00
2009,11,17,13,45,29.00
2009,11,17,13,46,29.00
2009,11,17,13,47,29.00
2009,11,17,13,48,29.00
2009,11,17,13,49,29.00
2009,11,17,13,50,29.00
2009,11,17,13,51,29.00
2009,11,17,13,52,29.00
2009,11,17,13,53,29.00
2009,11,17,13,54,29.00
2009,11,17,13,55,29.00
2009,11,17,13,56,29.00
2009,11,17,13,57,29.00
2009,11,17,13,58,29.00
2009,11,17,13,59,29.00
2009,11,17,14,00,29.00
2009,11,17,14,01,29.00
2009,11,17,14,02,29.00
2009,11,17,14,03,29.00
2009,11,17,14,04,29.00
2009,11,17,14,05,29.00
2009,11,17,14,06,29.00
2009,11,17,14,07,29.00
2009,11,17,14,08,29.00
2009,11,17,14,09,29.00
2009,11,17,14,10,29.00
2009,11,17,14,11,29.00
2009,11,17,14,12,29.00
2009,11,17,14,13,29.00
2009,11,17,14,14,29.00
2009,11,17,14,15,29.00
2009,11,17,14,16,29.00
2009,11,17,14,17,29.00
2009,11,17,14,18,29.00
2009,11,17,14,19,29.00
2009,11,17,14,20,29.00
2009,11,17,14,21,29.00
2009,11,17,14,22,29.00
2009,11,17,14,23,29.00
2009,11,17,14,24,29.00
2009,11,17,14,25,29.00
2009,11,17,14,26,29.00
2009,11,17,14,27,29.00
2009,11,17,14,28,29.00
2009,11,17,14,29,29.00
2009,11,17,14,30,29.00
2009,11,17,14,31,29.00
2009,11,17,14,32,29.00
2009,11,17,14,33,29.00
2009,11,17,14,34,29.00
2009,11,17,14,35,29.00
2009,11,17,14,36,29.00
2009,11,17,14,37,29.00
2009,11,17,14,38,29.00
2009,11,17,14,39,29.00
2009,11,17,14,40,29.00
2009,11,17,14,41,29.00
2009,11,17,14,42,29.00
2009,11,17,14,43,29.00
2009,11,17,14,44,29.00
2009,11,17,14,45,29.00
2009,11,17,14,46,29.00
2009,11,17,14,47,29.00
2009,11,17,14,48,29.00
2009,11,17,14,49,29.00
2009,11,17,14,50,29.00
2009,11,17,14,51,29.00
2009,11,17,14,52,29.00
2009,11,17,14,53,29.00
2009,11,17,14,54,29.00
2009,11,17,14,55,29.00
2009,11,17,14,56,29.00
2009,11,17,14,57,29.00
2009,11,17,14,58,29.00
2009,11,17,14,59,29.00
2009,11,17,15,00,29.00
2009,11,17,15,01,29.00
2009,11,17,15,02,29.00
2009,11,17,15,03,29.00
2009,11,17,15,04,29.00
2009,11,17,15,05,29.00
2009,11,17,15,06,29.00
2009,11,17,15,07,29.00
2009,11,17,15,08,29.00
2009,11,17,15,09,29.00
2009,11,17,15,10,29.00
2009,11,17,15,11,29.00
2009,11,17,15,12,29.00
2009,11,17,15,13,29.00
2009,11,17,15,14,29.00
2009,11,17,15,15,29.00
2009,11,17,15,16,29.00
2009,11,17,15,17,29.00
2009,11,17,15,18,29.00
2009,11,17,15,19,29.00
2009,11,17,15,20,29.00
2009,11,17,15,21,29.00
2009,11,17,15,22,29.00
2009,11,17,15,23,29.00
2009,11,17,15,24,29.00
2009,11,17,15,25,29.00
2009,11,17,15,26,29.00
2009,11,17,15,27,29.00
2009,11,17,15,28,29.00
2009,11,17,15,29,29.00
2009,11,17,15,30,29.00
2009,11,17,15,31,29.00
2009,11,17,15,32,29.00
2009,11,17,15,33,29.00
2009,11,17,15,34,29.00
2009,11,17,15,35,29.00
2009,11,17,15,36,29.00
2009,11,17,15,37,29.00
2009,11,17,15,38,29.00
2009,11,17,15,39,29.00
2009,11,17,15,40,29.00
2009,11,17,15,41,29.00
2009,11,17,15,42,29.00
2009,11,17,15,43,29.00
2009,11,17,15,44,29.00
2009,11,17,15,45,29.00
2009,11,17,15,46,29.00
2009,11,17,15,47,29.00
2009,11,17,15,48,29.00
2009,11,17,15,49,29.00
2009,11,17,15,50,29.00
2009,11,17,15,51,29.00
2009,11,17,15,52,29.00
2009,11,17,15,53,29.00
2009,11,17,15,54,29.00
2009,11,17,15,55,29.00
2009,11,17,15,56,29.00
2009,11,17,15,57,29.00
2009,11,17,15,58,29.00
2009,11,17,15,59,29.00
2009,11,17,16,00,29.00
2009,11,17,16,01,29.00
2009,11,17,16,02,29.00
2009,11,17,16,03,29.00
2009,11,17,16,04,29.00
2009,11,17,16,05,29.00
2009,11,17,16,06,29.00
2009,11,17,16,07,29.00
2009,11,17,16,08,29.00
2009,11,17,16,09,29.00
2009,11,17,16,10,29.00
2009,11,17,16,11,29.00
2009,11,17,16,12,29.00
2009,11,17,16,13,29.00
2009,11,17,16,14,29.00
2009,11,17,16,15,29.00
2009,11,17,16,16,29.00
2009,11,17,16,17,29.00
2009,11,17,16,18,29.00
2009,11,17,16,19,29.00
2009,11,17,16,20,29.00
2009,11,17,16,21,29.00
2009,11,17,16,22,29.00
2009,11,17,16,23,29.00
2009,11,17,16,24,29.00
2009,11,17,16,25,29.00
2009,11,17,16,26,29.00
2009,11,17,16,27,29.00
2009,11,17,16,28,29.00
2009,11,17,16,29,29.00
2009,11,17,16,30,29.00
2009,11,17,16,31,29.00
2009,11,17,16,32,29.00
2009,11,17,16,33,29.00
2009,11,17,16,34,29.00
2009,11,17,16,35,29.00
2009,11,17,16,36,29.00
2009,11,17,16,37,29.00
2009,11,17,16,38,29.00
2009,11,17,16,39,29.00
2009,11,17,16,40,29.00
2009,11,17,16,41,29.00
2009,11,17,16,42,29.00
2009,11,17,16,43,29.00
2009,11,17,16,44,29.00
2009,11,17,16,45,29.00
2009,11,17,16,46,29.00
2009,11,17,16,47,29.00
2009,11,17,16,48,29.00
2009,11,17,16,49,29.00
2009,11,17,16,50,29.00
2009,11,17,16,51,29.00
2009,11,17,16,52,29.00
2009,11,17,16,53,29.00
2009,11,17,16,54,29.00
2009,11,17,16,55,29.00
2009,11,17,16,56,29.00
2009,11,17,16,57,29.00
2009,11,17,16,58,29.00
2009,11,17,16,59,29.00
2009,11,17,17,00,29.00
2009,11,17,17,01,29.00
2009,11,17,17,02,29.00
2009,11,17,17,03,29.00
2009,11,17,17,04,29.00
2009,11,17,17,05,29.00
2009,11,17,17,06,29.00
2009,11,17,17,07,29.00
2009,11,17,17,08,29.00
2009,11,17,17,09,29.00
2009,11,17,17,10,29.00
2009,11,17,17,11,29.00
2009,11,17,17,12,29.00
2009,11,17,17,13,29.00
2009,11,17,17,14,29.00
2009,11,17,17,15,29.00
2009,11,17,17,16,29.00
2009,11,17,17,17,29.00
2009,11,17,17,18,29.00
2009,11,17,17,19,29.00
2009,11,17,17,25,1.60
2009,11,17,17,26,0.00
2009,11,17,17,27,1.60
2009,11,17,17,28,1.60
2009,11,17,17,29,0.00
2009,11,17,17,30,1.60
2009,11,17,17,31,6.40
2009,11,17,17,32,1.60
2009,11,17,17,33,3.20
2009,11,17,17,34,1.60
2009,11,17,17,35,0.00